When you browse on this site, cookies collect data to enhance your experience and personalize the content and advertising you see.
Visit our Privacy Policy to learn more. By continuing to use the site, you agree to this use of cookies and data.
  • In United Kingdom
  • List of Countries
  • For 7 days
  • Water Temperature
  • Satellite Maps
  • Weather Map
  • Weather Widgets
  • user-avatar
    Login

    Hourly Weather Shevchenko

    Today, 19 November, Monday

    Time Temperature Precipitation Wind Pressure Humidity
    00:00 -3°C° 0 mm 2 mps 763 mmHg 37%
    01:00 -3°C° 0 mm 2 mps 763 mmHg 38%
    02:00 -3°C° 0 mm 2 mps 763 mmHg 39%
    03:00 -1°C° 0 mm 1 mps 763 mmHg 39%
    04:00 -1°C° 0 mm 1 mps 763 mmHg 40%
    05:00 -2°C° 0 mm 1 mps 763 mmHg 41%
    06:00 -2°C° 0 mm 1 mps 763 mmHg 42%
    07:00 -1°C° 0 mm 1 mps 763 mmHg 41%
    08:00 -1°C° 0 mm 1 mps 764 mmHg 40%
    09:00 0°C° 0 mm 1 mps 764 mmHg 39%
    10:00 +1°C° 0 mm 1 mps 764 mmHg 36%
    11:00 +2°C° 0 mm 1 mps 764 mmHg 34%
    12:00 +3°C° 0 mm 1 mps 764 mmHg 32%
    13:00 +3°C° 0 mm 1 mps 764 mmHg 34%
    14:00 +2°C° 0 mm 1 mps 764 mmHg 36%
    15:00 +2°C° 0 mm 1 mps 764 mmHg 38%
    16:00 +1°C° 0 mm 1 mps 764 mmHg 41%
    17:00 0°C° 0 mm 1 mps 764 mmHg 43%
    18:00 0°C° 0 mm 1 mps 764 mmHg 45%
    19:00 0°C° 0 mm 1 mps 764 mmHg 46%
    20:00 0°C° 0 mm 1 mps 764 mmHg 47%
    21:00 0°C° 0 mm 1 mps 764 mmHg 48%
    22:00 0°C° 0 mm 1 mps 764 mmHg 50%
    23:00 0°C° 0 mm 1 mps 763 mmHg 52%

    Tomorrow, 20 November, Tuesday

    Time Temperature Precipitation Wind Pressure Humidity
    00:00 0°C° 0 mm 1 mps 763 mmHg 54%
    01:00 0°C° 0 mm 1 mps 763 mmHg 56%
    02:00 0°C° 0 mm 1 mps 763 mmHg 59%
    03:00 0°C° 0 mm 1 mps 763 mmHg 61%
    04:00 0°C° 0 mm 1 mps 763 mmHg 65%
    05:00 0°C° 0 mm 1 mps 762 mmHg 69%
    06:00 -1°C° 0 mm 1 mps 762 mmHg 72%
    07:00 0°C° 0 mm 1 mps 762 mmHg 74%
    08:00 0°C° 0 mm 1 mps 762 mmHg 75%
    09:00 0°C° 0 mm 1 mps 762 mmHg 76%
    10:00 +1°C° 0 mm 1 mps 762 mmHg 74%
    11:00 +2°C° 0 mm 1 mps 762 mmHg 72%
    12:00 +2°C° 0 mm 1 mps 761 mmHg 70%
    13:00 +2°C° 0 mm 1 mps 761 mmHg 73%
    14:00 +2°C° 0 mm 1 mps 761 mmHg 75%
    15:00 +2°C° 0 mm 1 mps 760 mmHg 78%
    16:00 -1°C° 0 mm 2 mps 760 mmHg 81%
    17:00 -1°C° 0 mm 2 mps 760 mmHg 84%
    18:00 -2°C° 0 mm 2 mps 760 mmHg 88%
    19:00 -2°C° 0 mm 2 mps 760 mmHg 87%
    20:00 -2°C° 0 mm 2 mps 760 mmHg 86%
    21:00 -2°C° 0 mm 2 mps 760 mmHg 85%
    22:00 -2°C° 0 mm 2 mps 760 mmHg 85%
    23:00 -2°C° 0 mm 2 mps 759 mmHg 85%

    Day after tomorrow, 21 November, Wednesday

    Time Temperature Precipitation Wind Pressure Humidity
    00:00 -3°C° 0 mm 2 mps 759 mmHg 85%
    01:00 -3°C° 0 mm 2 mps 759 mmHg 83%
    02:00 -3°C° 0 mm 2 mps 759 mmHg 81%
    03:00 -3°C° 0 mm 2 mps 759 mmHg 80%
    04:00 -3°C° 0 mm 2 mps 759 mmHg 79%
    05:00 -3°C° 0 mm 2 mps 758 mmHg 78%
    06:00 -3°C° 0 mm 2 mps 758 mmHg 77%
    07:00 -4°C° 0 mm 3 mps 758 mmHg 76%
    08:00 -2°C° 0 mm 3 mps 758 mmHg 74%
    09:00 -2°C° 0 mm 3 mps 758 mmHg 73%
    10:00 -2°C° 0 mm 4 mps 758 mmHg 69%
    11:00 -2°C° 0 mm 4 mps 757 mmHg 66%
    12:00 -1°C° 0 mm 4 mps 757 mmHg 63%
    13:00 -1°C° 0 mm 4 mps 756 mmHg 63%
    14:00 -1°C° 0 mm 4 mps 756 mmHg 64%
    15:00 -2°C° 0 mm 4 mps 756 mmHg 65%
    16:00 -2°C° 0 mm 4 mps 756 mmHg 68%
    17:00 -3°C° 0 mm 4 mps 756 mmHg 72%
    18:00 -3°C° 0 mm 4 mps 755 mmHg 75%
    19:00 -3°C° 0.1 mm 4 mps 755 mmHg 77%
    20:00 -3°C° 0.1 mm 4 mps 755 mmHg 78%
    21:00 -3°C° 0.1 mm 4 mps 755 mmHg 79%
    22:00 -3°C° 0 mm 4 mps 755 mmHg 79%
    23:00 -2°C° 0 mm 3 mps 755 mmHg 78%

    22 November, Thursday

    Time Temperature Precipitation Wind Pressure Humidity
    00:00 -2°C° 0 mm 3 mps 755 mmHg 78%
    01:00 -4°C° 0 mm 3 mps 755 mmHg 78%
    02:00 -4°C° 0 mm 3 mps 755 mmHg 77%
    03:00 -4°C° 0 mm 3 mps 755 mmHg 77%
    04:00 -4°C° 0 mm 3 mps 755 mmHg 75%
    05:00 -4°C° 0 mm 3 mps 755 mmHg 72%
    06:00 -4°C° 0 mm 3 mps 755 mmHg 69%
    07:00 -4°C° 0 mm 4 mps 755 mmHg 66%
    08:00 -3°C° 0 mm 4 mps 755 mmHg 63%
    09:00 -3°C° 0 mm 4 mps 755 mmHg 59%
    10:00 -4°C° 0 mm 5 mps 755 mmHg 57%
    11:00 -2°C° 0 mm 5 mps 754 mmHg 54%
    12:00 -2°C° 0 mm 5 mps 754 mmHg 52%
    13:00 -2°C° 0 mm 5 mps 754 mmHg 53%
    14:00 -4°C° 0 mm 5 mps 753 mmHg 55%
    15:00 -4°C° 0 mm 5 mps 753 mmHg 57%
    16:00 -4°C° 0 mm 5 mps 752 mmHg 60%
    17:00 -5°C° 0 mm 5 mps 752 mmHg 63%
    18:00 -5°C° 0 mm 5 mps 752 mmHg 67%
    19:00 -5°C° 0 mm 5 mps 751 mmHg 68%
    20:00 -5°C° 0 mm 6 mps 751 mmHg 70%
    21:00 -5°C° 0 mm 6 mps 751 mmHg 72%
    22:00 -5°C° 0.1 mm 6 mps 750 mmHg 73%
    23:00 -5°C° 0.1 mm 6 mps 750 mmHg 74%

    23 November, Friday

    Time Temperature Precipitation Wind Pressure Humidity
    00:00 -5°C° 0.1 mm 6 mps 750 mmHg 76%
    01:00 -4°C° 0.1 mm 7 mps 749 mmHg 75%
    02:00 -4°C° 0.1 mm 7 mps 749 mmHg 74%
    03:00 -4°C° 0.1 mm 8 mps 749 mmHg 73%
    04:00 -5°C° 0 mm 8 mps 751 mmHg 69%
    05:00 -6°C° 0 mm 8 mps 752 mmHg 64%
    06:00 -6°C° 0 mm 9 mps 753 mmHg 59%
    07:00 -7°C° 0 mm 8 mps 754 mmHg 58%
    08:00 -7°C° 0 mm 8 mps 755 mmHg 56%
    09:00 -7°C° 0 mm 7 mps 757 mmHg 55%
    10:00 -7°C° 0 mm 7 mps 758 mmHg 55%
    11:00 -6°C° 0 mm 7 mps 758 mmHg 55%
    12:00 -5°C° 0 mm 6 mps 759 mmHg 54%
    13:00 -5°C° 0 mm 6 mps 760 mmHg 55%
    14:00 -5°C° 0 mm 6 mps 760 mmHg 55%
    15:00 -5°C° 0 mm 6 mps 760 mmHg 55%
    16:00 -6°C° 0 mm 5 mps 761 mmHg 57%
    17:00 -7°C° 0 mm 5 mps 762 mmHg 59%
    18:00 -7°C° 0 mm 4 mps 762 mmHg 62%
    19:00 -7°C° 0 mm 4 mps 763 mmHg 63%
    20:00 -7°C° 0 mm 3 mps 763 mmHg 65%
    21:00 -7°C° 0 mm 3 mps 763 mmHg 67%
    22:00 -7°C° 0 mm 3 mps 764 mmHg 68%
    23:00 -7°C° 0 mm 3 mps 764 mmHg 69%

    24 November, Saturday

    Time Temperature Precipitation Wind Pressure Humidity
    00:00 -7°C° 0 mm 3 mps 764 mmHg 71%
    01:00 -7°C° 0 mm 3 mps 763 mmHg 71%
    02:00 -8°C° 0 mm 4 mps 763 mmHg 71%
    03:00 -8°C° 0 mm 4 mps 763 mmHg 70%
    04:00 -8°C° 0 mm 5 mps 763 mmHg 69%
    05:00 -8°C° 0 mm 5 mps 762 mmHg 68%
    06:00 -8°C° 0 mm 6 mps 762 mmHg 66%
    07:00 -8°C° 0 mm 6 mps 761 mmHg 64%
    08:00 -7°C° 0 mm 7 mps 761 mmHg 61%
    09:00 -7°C° 0 mm 8 mps 761 mmHg 58%
    10:00 -6°C° 0 mm 8 mps 761 mmHg 56%
    11:00 -5°C° 0 mm 8 mps 760 mmHg 53%
    12:00 -4°C° 0 mm 8 mps 760 mmHg 50%
    13:00 -4°C° 0 mm 8 mps 760 mmHg 53%
    14:00 -3°C° 0 mm 7 mps 760 mmHg 55%
    15:00 -3°C° 0 mm 6 mps 759 mmHg 57%
    16:00 -3°C° 0 mm 6 mps 759 mmHg 61%
    17:00 -4°C° 0 mm 6 mps 759 mmHg 65%
    18:00 -5°C° 0 mm 5 mps 759 mmHg 69%
    19:00 -5°C° 0 mm 5 mps 759 mmHg 71%
    20:00 -5°C° 0 mm 5 mps 759 mmHg 73%
    21:00 -5°C° 0 mm 5 mps 759 mmHg 75%
    22:00 -4°C° 0 mm 4 mps 759 mmHg 77%
    23:00 -4°C° 0 mm 4 mps 759 mmHg 79%
    Show more